カタログに戻る

FENGYUN 1C DEB

運用中PO
NORAD 37400·DEBRIS·🇨🇳 China

打ち上げ May 10, 1999 から Taiyuan Satellite Launch Center

Loading…

次のパス (今後24時間)

TLE

経年Source: Space-Track

元期: Sep 9, 2026, 18:51 UTC

1 37400U 99025EFS 26252.78610960  .00000386  00000-0  30755-3 0  9993
2 37400  98.8408  71.2933 0401135 146.3500 216.3823 13.63945216838881

AllMySatでFENGYUN 1C DEBをリアルタイム追跡

Download on the App Store